Location: Unspecified
(43.3830°N, 0.0000°E)
Time: 22:42:54
(UTC+00:00)

Explorer 7 - Pass Details

Date: 03 July 2019
Orbit: 485 x 680 km, 50.3° (Epoch: 19 July)

Event Time Altitude Azimuth Distance (km) Brightness Sun altitude
Rises 06:13:55 0° 267° (W) 2,643 9.7 17.2°
Reaches altitude 10° 06:16:10 10° 275° (W) 1,784 8.9 17.6°
Maximum altitude 06:20:01 40° 345° (NNW) 834 8.0 18.3°
Drops below altitude 10° 06:24:06 10° 56° (NE) 1,902 11.2 19.0°
Sets 06:26:34 0° 64° (ENE) 2,841 12.0 19.5°
